FLOCK 4Q 17

导读

FLOCK 4Q 17是美国Planet公司SuperDove遥感卫星群的一员,于协调世界时2023年11月11日08:00发射入轨,是FLOCK 4Q批次中的卫星。该卫星继承了Dove星座技术积累,配备多光谱成像载荷,可获取高重访率的对地观测影像,为农业估产、林业监测、城市规划、灾害应急等领域提供持续的空间数据支撑,补充完善了全球 daily 观测能力,是商业遥感星座组网运营的典型单元。

基本信息
目录编号:
58283
目录名称:
FLOCK 4Q 17
国际标识:
2023-174AD
轨道中心:
EARTH
卫星名称:
FLOCK 4Q 17
卫星全名:
--
卫星状态:
已陨落 最后检测时间 2026-04-30
发射日期:
2023-11-11 UTC
国别 :
美国 (US)
星等 :
--
轨道信息
数据来源 国际轨道数据
星历时间: 2026-04-30T14:50:37+0800
轨道信息已过期42天
半长轴: 6541.657km
偏心率: 0.0013756
轨道倾角: 97.343°
近地点辐角 233.312°
升交点赤经 215.794°
平近点角 126.691°
近地点: 154.521km
远地点: 172.519km
周期: 87.759分钟
每日圈数: 16.408587
详细信息
使用方式:
暂无